Regional Weather Roundup
Issued by NWS

Home | Current Version | Previous Version | Graphics & Text | Print | Product List | Glossary On
Versions: 1 2 3 4 5 6 7 8 9 10 11 12 13 14 15 16 17 18 19 20 21 22 23 24 25 26 27 28 29 30 31 32 33 34 35 36 37 38 39 40 41 42 43 44 45 46 47 48 49 50
000
ASUS45 KABQ 141501
RWRNM
NEW MEXICO REGIONAL WEATHER ROUNDUP
NATIONAL WEATHER SERVICE ALBUQUERQUE NM
800 AM MST THU DEC 14 2017

NOTE: "FAIR" MEANS FEW OR NO CLOUDS BELOW 12,000 FEET AGL WITH NO
       SIGNIFICANT WEATHER OR OBSTRUCTIONS TO VISION.

      THIS PRODUCT IS RELEASED AS TWO VERSIONS.  ONE VERSION NEAR
      THE TOP OF THE HOUR CONTAINING PRELIMINARY DATA FROM ALBUQUERQUE
      AND OTHER STATIONS.  A FINAL VERSION WITH ADDITIONAL DATA IS
      ISSUED ABOUT 10 MINUTES AFTER THE HOUR.

NMZ501-503-504-510>518-141600-
NORTHWEST PLATEAU/NORTHCENTRAL MOUNTAINS

CITY           SKY/WX    TMP DP  RH WIND       PRES   REMARKS
FARMINGTON     FAIR      20   5  52 N6        30.04R WCI  12
LOS ALAMOS     FAIR      35   9  34 SW13G20   30.08R WCI  26
SANTA FE       FAIR      37  13  37 SE15      30.06R WCI  28
TAOS           FAIR      34  12  40 SE22G29   30.09R WCI  22
ANGEL FIRE     MOCLDY    25  13  60 CALM      30.14R

$$
NMZ402-403-502-505>509-141600-
WESTCENTRAL MOUNTAINS/SOUTHWEST MOUNTAINS

CITY           SKY/WX    TMP DP  RH WIND       PRES   REMARKS
GALLUP         FAIR      17  -1  45 CALM      30.08R
GRANTS         FAIR      22   1  41 NW7       30.10R WCI  13
SILVER CITY    FAIR      36  18  46 NW6       30.03R WCI  32

$$
NMZ407-409-411-412-141600-
SOUTHERN DESERTS

CITY           SKY/WX    TMP DP  RH WIND       PRES   REMARKS
DEMING         FAIR      34  16  47 W3        30.02S
LAS CRUCES     FAIR      37  24  60 CALM      30.03S
ALAMOGORDO     FAIR      32  14  47 CALM      30.04R
T OR C         FAIR      34   6  31 N3        30.03R

$$
NMZ519>523-141600-
CENTRAL VALLEYS/CENTRAL HIGHLANDS

CITY           SKY/WX    TMP DP  RH WIND       PRES   REMARKS
ALBUQUERQUE    MOCLDY    39  11  31 E22G30    30.07R WCI  29
DOUBLE EAGLE   MOCLDY    32   9  37 CALM      30.09R
MORIARTY ARPT  FAIR      33  13  45 SW3       30.15R
CLINES CORNERS FAIR      27  10  49 E21G32    30.13R WCI  13
BELEN          FAIR      23   5  45 W9        30.08R WCI  13
SOCORRO        NOT AVBL

$$
NMZ524>526-539-540-141600-
SOUTHCENTRAL MOUNTAINS

CITY           SKY/WX    TMP DP  RH WIND       PRES   REMARKS
RUIDOSO        FAIR      32   7  34 S3        30.12R

$$
NMZ527>531-141600-
NORTHEAST HIGHLANDS/NORTHEAST PLAINS

CITY           SKY/WX    TMP DP  RH WIND       PRES   REMARKS
LAS VEGAS      FAIR      25  12  58 N7        30.16R WCI  17
RATON          MOCLDY    29  16  58 N7        30.18R WCI  22
CLAYTON        FAIR      34  20  56 N16       30.20R WCI  24

$$
NMZ532>537-141600-
EASTCENTRAL PLAINS

CITY           SKY/WX    TMP DP  RH WIND       PRES   REMARKS
SANTA ROSA     FAIR      33  15  48 NE10      30.18R WCI  24
TUCUMCARI      FAIR      33  17  51 NE9       30.18R WCI  25
CANNON AFB     NOT AVBL
CLOVIS AIRPORT FAIR      31  18  58 NE13      30.17R WCI  21

$$
NMZ028-029-538-141600-
SOUTHEAST PLAINS

CITY           SKY/WX    TMP DP  RH WIND       PRES   REMARKS
ROSWELL        FAIR      30  12  47 N12       30.12R WCI  20
ARTESIA        FAIR      34  10  37 NW9       30.11R WCI  26
CARLSBAD       FAIR      39  16  39 NW12      30.09R WCI  32
HOBBS          SUNNY     37  16  41 NE15G21   30.09R WCI  28


$$



USA.gov is the U.S. government's official web portal to all federal, state and local government web resources and services.